Time,TemperatureF,DewpointF,PressureIn,WindDirection,WindDirectionDegrees,WindSpeedMPH,WindSpeedGustMPH,Humidity,HourlyPrecipIn,Conditions,Clouds,dailyrainin,SoftwareType,DateUTC
2013-05-17 00:03:00,71.0,65.0,-100.00,SW,235,1.0,2.0,81,-99.99,,,-99.99,,2013-05-17 04:03:00,
2013-05-17 00:13:00,71.0,65.0,-100.00,SW,235,1.0,4.0,82,-99.99,,,-99.99,,2013-05-17 04:13:00,
2013-05-17 00:23:00,70.0,65.0,-100.00,SW,235,0.0,3.0,84,-99.99,,,-99.99,,2013-05-17 04:23:00,
2013-05-17 00:34:00,70.0,65.0,-100.00,WSW,255,1.0,2.0,86,-99.99,,,-99.99,,2013-05-17 04:34:00,
2013-05-17 00:43:00,69.0,65.0,-100.00,WSW,240,1.0,1.0,87,-99.99,,,-99.99,,2013-05-17 04:43:00,
2013-05-17 00:53:00,69.0,65.0,-100.00,West,280,1.0,4.0,87,-99.99,,,-99.99,,2013-05-17 04:53:00,
2013-05-17 01:03:00,69.0,66.0,-100.00,West,275,1.0,2.0,89,-99.99,,,-99.99,,2013-05-17 05:03:00,
2013-05-17 01:14:00,69.0,65.0,-100.00,WSW,250,0.0,2.0,90,-99.99,,,-99.99,,2013-05-17 05:14:00,
2013-05-17 01:22:00,68.0,65.0,-100.00,West,280,1.0,3.0,91,-99.99,,,-99.99,,2013-05-17 05:22:00,
2013-05-17 01:32:00,69.0,66.0,-100.00,West,270,1.0,4.0,92,-99.99,,,-99.99,,2013-05-17 05:32:00,
2013-05-17 01:43:00,68.0,66.0,-100.00,West,280,0.0,3.0,92,-99.99,,,-99.99,,2013-05-17 05:43:00,
2013-05-17 01:52:00,68.0,66.0,-100.00,WSW,245,1.0,1.0,94,-99.99,,,-99.99,,2013-05-17 05:52:00,
2013-05-17 02:02:00,67.0,66.0,-100.00,West,265,1.0,2.0,96,-99.99,,,-99.99,,2013-05-17 06:02:00,
2013-05-17 02:11:00,67.0,66.0,-100.00,WNW,290,1.0,4.0,97,-99.99,,,-99.99,,2013-05-17 06:11:00,
2013-05-17 02:22:00,67.0,66.0,-100.00,West,270,1.0,4.0,98,-99.99,,,-99.99,,2013-05-17 06:22:00,
2013-05-17 02:32:00,67.0,66.0,-100.00,West,270,1.0,4.0,98,-99.99,,,-99.99,,2013-05-17 06:32:00,
2013-05-17 02:42:00,66.0,66.0,-100.00,WSW,250,0.0,1.0,99,-99.99,,,-99.99,,2013-05-17 06:42:00,
2013-05-17 02:52:00,66.0,66.0,-100.00,WSW,250,0.0,1.0,99,-99.99,,,-99.99,,2013-05-17 06:52:00,
2013-05-17 03:03:00,66.0,65.0,-100.00,WSW,250,0.0,1.0,99,-99.99,,,-99.99,,2013-05-17 07:03:00,
2013-05-17 03:11:00,65.0,65.0,-100.00,WSW,250,0.0,1.0,99,-99.99,,,-99.99,,2013-05-17 07:11:00,
2013-05-17 03:21:00,65.0,64.0,-100.00,WSW,250,0.0,1.0,99,-99.99,,,-99.99,,2013-05-17 07:21:00,
2013-05-17 03:32:00,65.0,64.0,-100.00,WSW,250,0.0,1.0,99,-99.99,,,-99.99,,2013-05-17 07:32:00,
2013-05-17 03:43:00,64.0,64.0,-100.00,SW,235,1.0,1.0,99,-99.99,,,-99.99,,2013-05-17 07:43:00,
2013-05-17 03:53:00,64.0,64.0,-100.00,West,260,0.0,1.0,99,-99.99,,,-99.99,,2013-05-17 07:53:00,
2013-05-17 04:02:00,64.0,64.0,-100.00,West,260,0.0,1.0,99,-99.99,,,-99.99,,2013-05-17 08:02:00,
2013-05-17 04:12:00,64.0,64.0,-100.00,WSW,255,0.0,1.0,99,-99.99,,,-99.99,,2013-05-17 08:12:00,
2013-05-17 04:23:00,64.0,63.0,-100.00,WNW,300,1.0,4.0,99,-99.99,,,-99.99,,2013-05-17 08:23:00,
2013-05-17 04:34:00,64.0,64.0,-100.00,WNW,290,1.0,5.0,99,-99.99,,,-99.99,,2013-05-17 08:34:00,
2013-05-17 04:42:00,65.0,65.0,-100.00,North,0,2.0,6.0,99,-99.99,,,-99.99,,2013-05-17 08:42:00,
2013-05-17 04:52:00,66.0,64.0,-100.00,WNW,300,3.0,6.0,96,-99.99,,,-99.99,,2013-05-17 08:52:00,
2013-05-17 05:02:00,66.0,64.0,-100.00,NW,305,2.0,6.0,96,-99.99,,,-99.99,,2013-05-17 09:02:00,
2013-05-17 05:12:00,65.0,64.0,-100.00,SW,230,1.0,4.0,97,-99.99,,,-99.99,,2013-05-17 09:12:00,
2013-05-17 05:22:00,64.0,63.0,-100.00,NW,320,1.0,1.0,99,-99.99,,,-99.99,,2013-05-17 09:22:00,
2013-05-17 05:33:00,63.0,63.0,-100.00,ENE,65,1.0,2.0,99,-99.99,,,-99.99,,2013-05-17 09:33:00,
2013-05-17 05:42:00,63.0,63.0,-100.00,SE,125,0.0,1.0,99,-99.99,,,-99.99,,2013-05-17 09:42:00,
2013-05-17 05:53:00,63.0,62.0,-100.00,SE,125,0.0,1.0,99,-99.99,,,-99.99,,2013-05-17 09:53:00,
2013-05-17 06:03:00,63.0,62.0,-100.00,SW,220,1.0,2.0,99,-99.99,,,-99.99,,2013-05-17 10:03:00,
2013-05-17 06:12:00,62.0,62.0,-100.00,West,265,1.0,2.0,99,-99.99,,,-99.99,,2013-05-17 10:12:00,
2013-05-17 06:23:00,62.0,62.0,-100.00,SSE,165,0.0,1.0,99,-99.99,,,-99.99,,2013-05-17 10:23:00,
2013-05-17 06:33:00,62.0,61.0,-100.00,SW,235,0.0,1.0,99,-99.99,,,-99.99,,2013-05-17 10:33:00,
2013-05-17 06:42:00,62.0,61.0,-100.00,SW,230,0.0,1.0,99,-99.99,,,-99.99,,2013-05-17 10:42:00,
2013-05-17 06:53:00,62.0,61.0,-100.00,SW,230,1.0,2.0,99,-99.99,,,-99.99,,2013-05-17 10:53:00,
2013-05-17 07:02:00,62.0,61.0,-100.00,NW,325,0.0,2.0,99,-99.99,,,-99.99,,2013-05-17 11:02:00,
2013-05-17 07:12:00,62.0,61.0,-100.00,WSW,255,0.0,1.0,99,-99.99,,,-99.99,,2013-05-17 11:12:00,
2013-05-17 07:23:00,62.0,62.0,-100.00,WSW,255,1.0,1.0,99,-99.99,,,-99.99,,2013-05-17 11:23:00,
2013-05-17 07:34:00,63.0,62.0,-100.00,West,265,0.0,1.0,99,-99.99,,,-99.99,,2013-05-17 11:34:00,
2013-05-17 07:42:00,63.0,62.0,-100.00,West,265,0.0,0.0,99,-99.99,,,-99.99,,2013-05-17 11:42:00,
2013-05-17 07:53:00,63.0,63.0,-100.00,SW,225,1.0,1.0,99,-99.99,,,-99.99,,2013-05-17 11:53:00,
2013-05-17 08:03:00,63.0,63.0,-100.00,North,5,1.0,3.0,99,-99.99,,,-99.99,,2013-05-17 12:03:00,
2013-05-17 08:12:00,64.0,64.0,-100.00,WSW,240,1.0,3.0,99,-99.99,,,-99.99,,2013-05-17 12:12:00,
2013-05-17 08:23:00,64.0,64.0,-100.00,SW,220,1.0,2.0,99,-99.99,,,-99.99,,2013-05-17 12:23:00,
2013-05-17 08:33:00,64.0,64.0,-100.00,WSW,245,1.0,4.0,99,-99.99,,,-99.99,,2013-05-17 12:33:00,
2013-05-17 08:43:00,65.0,65.0,-100.00,West,260,1.0,4.0,99,-99.99,,,-99.99,,2013-05-17 12:43:00,
2013-05-17 08:53:00,67.0,66.0,-100.00,SW,235,1.0,3.0,99,-99.99,,,-99.99,,2013-05-17 12:53:00,
2013-05-17 09:04:00,68.0,67.0,-100.00,SW,215,1.0,3.0,96,-99.99,,,-99.99,,2013-05-17 13:04:00,
2013-05-17 09:12:00,70.0,68.0,-100.00,South,180,1.0,5.0,93,-99.99,,,-99.99,,2013-05-17 13:12:00,
2013-05-17 09:23:00,71.0,67.0,-100.00,SW,235,2.0,5.0,87,-99.99,,,-99.99,,2013-05-17 13:23:00,
2013-05-17 09:33:00,72.0,67.0,-100.00,West,260,4.0,6.0,85,-99.99,,,-99.99,,2013-05-17 13:33:00,
2013-05-17 09:42:00,72.0,66.0,-100.00,WSW,240,1.0,6.0,83,-99.99,,,-99.99,,2013-05-17 13:42:00,
2013-05-17 09:52:00,72.0,66.0,-100.00,WSW,255,1.0,5.0,80,-99.99,,,-99.99,,2013-05-17 13:52:00,
2013-05-17 10:02:00,73.0,65.0,-100.00,NNW,330,2.0,4.0,77,-99.99,,,-99.99,,2013-05-17 14:02:00,
2013-05-17 10:13:00,74.0,65.0,-100.00,NNW,345,1.0,2.0,74,-99.99,,,-99.99,,2013-05-17 14:13:00,
2013-05-17 10:22:00,75.0,65.0,-100.00,WSW,250,1.0,3.0,71,-99.99,,,-99.99,,2013-05-17 14:22:00,
2013-05-17 10:34:00,77.0,66.0,-100.00,NNW,330,2.0,4.0,68,-99.99,,,-99.99,,2013-05-17 14:34:00,
2013-05-17 10:43:00,79.0,65.0,-100.00,SW,220,1.0,4.0,64,-99.99,,,-99.99,,2013-05-17 14:43:00,
2013-05-17 10:53:00,80.0,65.0,-100.00,WSW,240,2.0,6.0,61,-99.99,,,-99.99,,2013-05-17 14:53:00,
2013-05-17 11:03:00,81.0,64.0,-100.00,North,5,4.0,6.0,56,-99.99,,,-99.99,,2013-05-17 15:03:00,
2013-05-17 11:14:00,83.0,64.0,-100.00,NE,50,1.0,4.0,53,-99.99,,,-99.99,,2013-05-17 15:14:00,
2013-05-17 11:25:00,83.0,64.0,-100.00,NW,325,5.0,9.0,53,-99.99,,,-99.99,,2013-05-17 15:25:00,
2013-05-17 11:37:00,83.0,64.0,-100.00,WNW,285,2.0,7.0,53,-99.99,,,-99.99,,2013-05-17 15:37:00,
2013-05-17 11:47:00,82.0,64.0,-100.00,WNW,295,4.0,8.0,53,-99.99,,,-99.99,,2013-05-17 15:47:00,
2013-05-17 11:56:00,83.0,63.0,-100.00,SW,230,4.0,10.0,52,-99.99,,,-99.99,,2013-05-17 15:56:00,
2013-05-17 12:07:00,83.0,63.0,-100.00,WNW,300,6.0,11.0,51,-99.99,,,-99.99,,2013-05-17 16:07:00,
2013-05-17 12:14:00,83.0,63.0,-100.00,WSW,245,2.0,11.0,50,-99.99,,,-99.99,,2013-05-17 16:14:00,
2013-05-17 12:26:00,84.0,63.0,-100.00,WNW,290,6.0,10.0,49,-99.99,,,-99.99,,2013-05-17 16:26:00,
2013-05-17 12:37:00,83.0,62.0,-100.00,WSW,240,9.0,14.0,50,-99.99,,,-99.99,,2013-05-17 16:37:00,
2013-05-17 12:49:00,83.0,63.0,-100.00,West,260,6.0,11.0,50,-99.99,,,-99.99,,2013-05-17 16:49:00,
2013-05-17 12:56:00,84.0,63.0,-100.00,WNW,285,4.0,10.0,50,-99.99,,,-99.99,,2013-05-17 16:56:00,
2013-05-17 13:08:00,83.0,62.0,-100.00,SW,235,5.0,12.0,48,-99.99,,,-99.99,,2013-05-17 17:08:00,
2013-05-17 13:19:00,84.0,61.0,-100.00,South,190,5.0,9.0,46,-99.99,,,-99.99,,2013-05-17 17:19:00,
2013-05-17 13:30:00,85.0,61.0,-100.00,West,265,3.0,15.0,46,-99.99,,,-99.99,,2013-05-17 17:30:00,
2013-05-17 13:40:00,85.0,-99.9,-100.00,WSW,240,4.0,11.0,46,-99.99,,,-99.99,,2013-05-17 17:40:00,
2013-05-17 13:49:00,86.0,62.0,-100.00,SW,225,4.0,10.0,45,-99.99,,,-99.99,,2013-05-17 17:49:00,
2013-05-17 14:00:00,87.0,62.0,-100.00,WSW,240,6.0,12.0,44,-99.99,,,-99.99,,2013-05-17 18:00:00,
2013-05-17 14:09:00,86.0,61.0,-100.00,WNW,285,4.0,14.0,44,-99.99,,,-99.99,,2013-05-17 18:09:00,
2013-05-17 14:20:00,86.0,61.0,-100.00,West,260,4.0,11.0,44,-99.99,,,-99.99,,2013-05-17 18:20:00,
2013-05-17 14:30:00,86.0,61.0,-100.00,WSW,240,6.0,13.0,44,-99.99,,,-99.99,,2013-05-17 18:30:00,
2013-05-17 14:40:00,86.0,-99.9,-100.00,WSW,245,4.0,11.0,42,-99.99,,,-99.99,,2013-05-17 18:40:00,
2013-05-17 14:50:00,-999.0,-99.9,-100.00,SW,235,7.0,11.0,43,-99.99,,,-99.99,,2013-05-17 18:50:00,
2013-05-17 15:00:00,84.0,60.0,-100.00,SW,230,11.0,14.0,44,-99.99,,,-99.99,,2013-05-17 19:00:00,
2013-05-17 15:10:00,85.0,60.0,-100.00,WNW,290,6.0,15.0,44,-99.99,,,-99.99,,2013-05-17 19:10:00,
2013-05-17 15:20:00,86.0,61.0,-100.00,WSW,255,4.0,14.0,43,-99.99,,,-99.99,,2013-05-17 19:20:00,
2013-05-17 15:30:00,86.0,61.0,-100.00,WSW,240,6.0,14.0,44,-99.99,,,-99.99,,2013-05-17 19:30:00,
2013-05-17 15:40:00,85.0,61.0,-100.00,WSW,255,2.0,14.0,44,-99.99,,,-99.99,,2013-05-17 19:40:00,
2013-05-17 15:51:00,85.0,61.0,-100.00,West,275,6.0,11.0,44,-99.99,,,-99.99,,2013-05-17 19:51:00,
2013-05-17 16:00:00,85.0,-99.9,-100.00,SW,215,5.0,14.0,45,-99.99,,,-99.99,,2013-05-17 20:00:00,
2013-05-17 16:10:00,84.0,60.0,-100.00,NNW,340,4.0,12.0,45,-99.99,,,-99.99,,2013-05-17 20:10:00,
2013-05-17 16:20:00,85.0,61.0,-100.00,SW,235,1.0,12.0,45,-99.99,,,-99.99,,2013-05-17 20:20:00,
2013-05-17 16:30:00,86.0,61.0,-100.00,SW,215,6.0,14.0,43,-99.99,,,-99.99,,2013-05-17 20:30:00,
2013-05-17 16:40:00,87.0,62.0,-100.00,West,260,3.0,15.0,43,-99.99,,,-99.99,,2013-05-17 20:40:00,
2013-05-17 16:50:00,85.0,61.0,-100.00,West,265,6.0,14.0,45,-99.99,,,-99.99,,2013-05-17 20:50:00,
2013-05-17 16:58:00,85.0,61.0,-100.00,SW,235,6.0,13.0,45,-99.99,,,-99.99,,2013-05-17 20:58:00,
2013-05-17 17:07:00,85.0,62.0,-100.00,WSW,255,5.0,12.0,46,-99.99,,,-99.99,,2013-05-17 21:07:00,
2013-05-17 17:17:00,84.0,61.0,-100.00,WNW,300,7.0,12.0,46,-99.99,,,-99.99,,2013-05-17 21:17:00,
2013-05-17 17:26:00,84.0,61.0,-100.00,WSW,255,8.0,13.0,46,-99.99,,,-99.99,,2013-05-17 21:26:00,
2013-05-17 17:39:00,85.0,62.0,-100.00,West,275,6.0,17.0,46,-99.99,,,-99.99,,2013-05-17 21:39:00,
2013-05-17 17:49:00,85.0,62.0,-100.00,West,265,8.0,16.0,46,-99.99,,,-99.99,,2013-05-17 21:49:00,
2013-05-17 17:57:00,85.0,62.0,-100.00,WNW,285,4.0,15.0,46,-99.99,,,-99.99,,2013-05-17 21:57:00,
2013-05-17 18:07:00,84.0,62.0,-100.00,SW,225,9.0,17.0,47,-99.99,,,-99.99,,2013-05-17 22:07:00,
2013-05-17 18:17:00,83.0,62.0,-100.00,WSW,250,5.0,16.0,49,-99.99,,,-99.99,,2013-05-17 22:17:00,
2013-05-17 18:28:00,82.0,62.0,-100.00,West,270,7.0,15.0,51,-99.99,,,-99.99,,2013-05-17 22:28:00,
2013-05-17 18:38:00,81.0,61.0,-100.00,West,260,4.0,14.0,52,-99.99,,,-99.99,,2013-05-17 22:38:00,
2013-05-17 18:47:00,81.0,62.0,-100.00,WSW,250,6.0,13.0,52,-99.99,,,-99.99,,2013-05-17 22:47:00,
2013-05-17 18:54:00,81.0,61.0,-100.00,SW,235,7.0,13.0,51,-99.99,,,-99.99,,2013-05-17 22:54:00,
2013-05-17 19:04:00,81.0,61.0,-100.00,WSW,240,6.0,11.0,51,-99.99,,,-99.99,,2013-05-17 23:04:00,
2013-05-17 19:13:00,80.0,61.0,-100.00,WSW,240,5.0,11.0,52,-99.99,,,-99.99,,2013-05-17 23:13:00,
2013-05-17 19:23:00,80.0,61.0,-100.00,West,260,6.0,11.0,53,-99.99,,,-99.99,,2013-05-17 23:23:00,
2013-05-17 19:37:00,80.0,60.0,-100.00,WSW,245,4.0,15.0,52,-99.99,,,-99.99,,2013-05-17 23:37:00,
2013-05-17 19:47:00,79.0,60.0,-100.00,SW,235,6.0,10.0,52,-99.99,,,-99.99,,2013-05-17 23:47:00,
2013-05-17 19:54:00,80.0,60.0,-100.00,SW,230,4.0,9.0,52,-99.99,,,-99.99,,2013-05-17 23:54:00,
2013-05-17 20:02:00,80.0,60.0,-100.00,SW,220,2.0,9.0,51,-99.99,,,-99.99,,2013-05-18 00:02:00,
2013-05-17 20:14:00,80.0,60.0,-100.00,WSW,245,5.0,9.0,50,-99.99,,,-99.99,,2013-05-18 00:14:00,
2013-05-17 20:22:00,79.0,60.0,-100.00,WSW,240,6.0,9.0,51,-99.99,,,-99.99,,2013-05-18 00:22:00,
2013-05-17 20:34:00,79.0,59.0,-100.00,SW,225,4.0,8.0,51,-99.99,,,-99.99,,2013-05-18 00:34:00,
2013-05-17 20:45:00,78.0,59.0,-100.00,SW,230,3.0,7.0,52,-99.99,,,-99.99,,2013-05-18 00:45:00,
2013-05-17 20:54:00,78.0,59.0,-100.00,SW,235,1.0,7.0,53,-99.99,,,-99.99,,2013-05-18 00:54:00,
2013-05-17 21:03:00,78.0,60.0,-100.00,WSW,245,0.0,6.0,55,-99.99,,,-99.99,,2013-05-18 01:03:00,
2013-05-17 21:13:00,77.0,60.0,-100.00,SW,230,2.0,4.0,55,-99.99,,,-99.99,,2013-05-18 01:13:00,
2013-05-17 21:24:00,77.0,60.0,-100.00,WSW,240,1.0,4.0,56,-99.99,,,-99.99,,2013-05-18 01:24:00,
2013-05-17 21:32:00,77.0,60.0,-100.00,West,270,1.0,4.0,56,-99.99,,,-99.99,,2013-05-18 01:32:00,
2013-05-17 21:43:00,76.0,60.0,-100.00,WSW,255,1.0,4.0,57,-99.99,,,-99.99,,2013-05-18 01:43:00,
2013-05-17 21:52:00,76.0,61.0,-100.00,SW,235,1.0,2.0,58,-99.99,,,-99.99,,2013-05-18 01:52:00,
2013-05-17 22:03:00,76.0,60.0,-100.00,WSW,240,1.0,2.0,58,-99.99,,,-99.99,,2013-05-18 02:03:00,
2013-05-17 22:12:00,75.0,61.0,-100.00,South,185,0.0,2.0,60,-99.99,,,-99.99,,2013-05-18 02:12:00,
2013-05-17 22:23:00,75.0,61.0,-100.00,SW,235,1.0,1.0,63,-99.99,,,-99.99,,2013-05-18 02:23:00,
2013-05-17 22:32:00,74.0,61.0,-100.00,South,170,1.0,2.0,64,-99.99,,,-99.99,,2013-05-18 02:32:00,
2013-05-17 22:42:00,74.0,62.0,-100.00,SW,235,0.0,1.0,66,-99.99,,,-99.99,,2013-05-18 02:42:00,
2013-05-17 22:53:00,73.0,62.0,-100.00,SW,220,0.0,1.0,68,-99.99,,,-99.99,,2013-05-18 02:53:00,
2013-05-17 23:03:00,73.0,62.0,-100.00,SSW,195,1.0,1.0,69,-99.99,,,-99.99,,2013-05-18 03:03:00,
2013-05-17 23:12:00,73.0,62.0,-100.00,SSE,165,0.0,1.0,70,-99.99,,,-99.99,,2013-05-18 03:12:00,
2013-05-17 23:23:00,72.0,62.0,-100.00,South,180,1.0,1.0,71,-99.99,,,-99.99,,2013-05-18 03:23:00,
2013-05-17 23:33:00,72.0,63.0,-100.00,South,170,0.0,1.0,72,-99.99,,,-99.99,,2013-05-18 03:33:00,
2013-05-17 23:43:00,72.0,63.0,-100.00,South,170,0.0,1.0,73,-99.99,,,-99.99,,2013-05-18 03:43:00,
2013-05-17 23:53:00,72.0,63.0,-100.00,SW,235,0.0,1.0,74,-99.99,,,-99.99,,2013-05-18 03:53:00,